TimeMST,TemperatureF,Dew PointF,Humidity,Sea Level PressureIn,VisibilityMPH,Wind Direction,Wind SpeedMPH,Gust SpeedMPH,PrecipitationIn,Events,Conditions,WindDirDegrees,DateUTC
12:56 AM,50.0,21.9,33,29.87,10.0,SE,5.8,-,N/A,,Clear,130,2013-03-07 07:56:00
1:56 AM,48.9,25.0,39,29.86,10.0,SSW,8.1,-,N/A,,Clear,200,2013-03-07 08:56:00
2:56 AM,45.0,21.9,40,29.86,10.0,Calm,Calm,-,N/A,,Clear,0,2013-03-07 09:56:00
3:56 AM,46.0,25.0,44,29.86,10.0,ESE,4.6,-,N/A,,Clear,120,2013-03-07 10:56:00
4:56 AM,43.0,24.1,47,29.88,10.0,ESE,3.5,-,N/A,,Clear,120,2013-03-07 11:56:00
5:56 AM,41.0,24.1,51,29.90,10.0,East,4.6,-,N/A,,Clear,100,2013-03-07 12:56:00
6:56 AM,44.1,26.1,49,29.92,10.0,Calm,Calm,-,N/A,,Clear,0,2013-03-07 13:56:00
7:56 AM,50.0,27.0,41,29.94,10.0,Calm,Calm,-,N/A,,Clear,0,2013-03-07 14:56:00
8:56 AM,60.1,27.0,28,29.94,10.0,SE,4.6,-,N/A,,Clear,140,2013-03-07 15:56:00
9:56 AM,64.0,27.0,25,29.94,10.0,Calm,Calm,-,N/A,,Clear,0,2013-03-07 16:56:00
10:56 AM,66.9,27.0,22,29.93,10.0,SSE,12.7,-,N/A,,Clear,150,2013-03-07 17:56:00
11:56 AM,70.0,19.0,14,29.90,10.0,WSW,8.1,24.2,N/A,,Clear,250,2013-03-07 18:56:00
12:56 PM,73.4,19.4,13,30.01,10.0,SW,13.8,24.2,N/A,,Clear,230,2013-03-07 19:56:00
1:56 PM,73.0,17.1,12,29.84,10.0,West,15.0,27.6,N/A,,Clear,260,2013-03-07 20:56:00
2:56 PM,73.0,23.0,15,29.84,10.0,WSW,10.4,20.7,N/A,,Clear,250,2013-03-07 21:56:00
3:56 PM,73.0,24.1,16,29.83,10.0,WSW,17.3,28.8,N/A,,Scattered Clouds,250,2013-03-07 22:56:00
4:56 PM,71.1,25.0,18,29.84,10.0,West,16.1,25.3,N/A,,Scattered Clouds,260,2013-03-07 23:56:00
5:56 PM,68.0,23.0,18,29.87,10.0,WSW,17.3,24.2,N/A,,Mostly Cloudy,240,2013-03-08 00:56:00
6:56 PM,63.0,19.0,18,29.89,10.0,SW,12.7,-,N/A,,Clear,230,2013-03-08 01:56:00
7:56 PM,60.1,21.0,22,29.90,10.0,SW,11.5,-,N/A,,Clear,230,2013-03-08 02:56:00
8:56 PM,55.9,21.9,27,29.90,10.0,WSW,10.4,-,N/A,,Clear,240,2013-03-08 03:56:00
9:56 PM,52.0,21.9,31,29.91,10.0,SSW,5.8,-,N/A,,Clear,200,2013-03-08 04:56:00
10:56 PM,52.0,23.0,32,29.89,10.0,ESE,6.9,-,N/A,,Clear,110,2013-03-08 05:56:00
11:56 PM,52.0,23.0,32,29.88,10.0,East,6.9,-,N/A,,Clear,100,2013-03-08 06:56:00